Tracking 18815 objects as of 19-October-2017
HD Live streaming from Space Station
objects crossing your sky now

GLOBALSTAR M059

Track GLOBALSTAR M059 now!
10-day predictions
GLOBALSTAR M059 is classified as:


NORAD ID: 25944
Int'l Code: 1999-058B
Perigee: 1,688.0 km
Apogee: 1,688.7 km
Inclination: 52.0 °
Period: 120.0 minutes
Semi major axis: 8059 km
RCS: 2.6566 m2 (large)
Launch date: October 18, 1999
Source: Globalstar (GLOB)
Launch site: TYURATAM MISSILE AND SPACE COMPLEX (TTMTR)
aabbcc
Your satellite tracking list
Your tracking list is empty





NASA's NSSDC Master Catalog

Two Line Element Set (TLE):
1 25944U 99058B   17291.88935303 -.00000103 +00000-0 -20453-3 0  9997
2 25944 052.0013 216.9893 0000435 080.3406 309.7393 11.99921792238117
Source of the keplerian elements: AFSPC